Waarnemingen

Advertentie
Mijn weer
St-Dizier, Frankrijk (7169): temperatuur & dauwpunt: 14.02.2019 14:00:00 - 20.02.2019 14:00:00 (CET)St-Dizier, Frankrijk (7169): temperatuur 5cm: 14.02.2019 14:00:00 - 20.02.2019 14:00:00 (CET)St-Dizier, Frankrijk (7169): temperatuur -20cm & temperatuur -100cm: 14.02.2019 14:00:00 - 20.02.2019 14:00:00 (CET)St-Dizier, Frankrijk (7169): windsnelheid & windstoten: 14.02.2019 14:00:00 - 20.02.2019 14:00:00 (CET)St-Dizier, Frankrijk (7169): windrichting: 14.02.2019 14:00:00 - 20.02.2019 14:00:00 (CET)St-Dizier, Frankrijk (7169): luchtdruk: 14.02.2019 14:00:00 - 20.02.2019 14:00:00 (CET)St-Dizier, Frankrijk (7169): zicht: 14.02.2019 14:00:00 - 20.02.2019 14:00:00 (CET)St-Dizier, Frankrijk (7169): Zonneschijnduur: 14.02.2019 14:00:00 - 20.02.2019 14:00:00 (CET)St-Dizier, Frankrijk (7169): neerslag: 14.02.2019 14:00:00 - 20.02.2019 14:00:00 (CET)
Datum & Tijd tt [°C] td [°C] tt 5cm [°C] tt -20cm [°C] tt -100cm [°C] ff [km/u] ff [kn] fx [km/u] fx [kn] dd ppp [hPa] vv [km] sd [min] rr [mm]
20.02.2019 14:00:00 - - - - - - - - - - - - - -
20.02.2019 13:00:00 9,8 5,0 10,2 5,2 6,8 0 0 5 3 N 1025,4 16 0 0,0
20.02.2019 12:00:00 8,0 4,6 7,5 5,2 6,7 0 0 13 7 N 1025,8 9 0 0,0
20.02.2019 11:00:00 5,9 3,9 5,0 5,4 6,7 9 5 11 6 O 1025,3 9 0 0,0
20.02.2019 10:00:00 3,6 2,4 2,3 5,5 6,7 6 4 12 6 O 1025,2 7 7 0,0
20.02.2019 09:00:00 1,6 1,0 -1,2 5,6 6,8 8 5 10 6 O 1024,9 6 7 0,0
20.02.2019 08:00:00 -0,2 -0,8 -2,3 5,7 6,7 7 4 10 6 O 1024,6 4,5 0 0,0
20.02.2019 07:00:00 -0,8 -1,5 -2,5 5,8 6,7 6 3 9 5 O 1024,1 1,6 0 0,0
20.02.2019 06:00:00 -0,3 -0,9 -2,0 5,9 6,7 8 4 10 5 O 1023,9 4,1 0 0,0
20.02.2019 05:00:00 0,2 -0,4 -1,5 6,0 6,7 8 4 11 6 O 1023,6 4,9 0 0,0
20.02.2019 04:00:00 1,3 0,6 -0,6 6,1 6,7 7 4 10 5 O 1023,7 7 0 0,0
20.02.2019 03:00:00 0,7 0,0 -0,7 6,2 6,7 7 4 10 6 O 1024,0 4,9 0 0,0
20.02.2019 02:00:00 1,0 0,3 -0,7 6,3 6,7 6 3 10 5 O 1024,1 6 0 0,0
20.02.2019 01:00:00 1,3 0,6 -0,3 6,4 6,7 6 3 10 5 O 1024,1 7 0 0,0
20.02.2019 00:00:00 1,6 0,9 0,1 6,5 6,7 7 4 9 5 O 1023,9 8 0 0,0
19.02.2019 23:00:00 1,5 0,6 -0,3 6,5 6,7 5 3 8 5 O 1023,8 10 0 0,0
19.02.2019 22:00:00 2,0 1,0 0,4 6,5 6,7 6 3 8 5 O 1024,0 9 0 0,0
19.02.2019 21:00:00 2,6 1,1 1,2 6,5 6,7 6 3 7 4 O 1023,8 13 0 0,0
19.02.2019 20:00:00 3,9 2,4 2,1 6,4 6,7 5 3 6 4 O 1023,5 14 0 0,0
19.02.2019 19:00:00 5,5 3,0 3,4 6,2 6,7 0 0 9 5 N 1023,1 29 0 0,0
19.02.2019 18:00:00 9,0 3,2 7,2 6,1 6,7 4 2 8 4 WNW 1022,5 48 16 0,0
19.02.2019 17:00:00 10,0 3,0 9,8 5,9 6,7 5 3 11 6 ZW 1022,5 60 9 0,0
19.02.2019 16:00:00 11,1 3,4 11,7 5,8 6,7 9 5 16 9 ZZW 1022,7 27 47 0,0
19.02.2019 15:00:00 10,9 3,2 11,9 5,7 6,7 4 2 10 6 WNW 1022,7 43 26 0,0
19.02.2019 14:00:00 9,2 4,4 9,6 5,7 6,7 3 1 7 4 ZZW 1023,2 35 0 0,0
19.02.2019 13:00:00 8,3 5,2 8,1 5,7 6,7 3 2 8 5 Z 1023,5 17 0 0,0
19.02.2019 12:00:00 7,1 5,2 6,4 5,7 6,7 5 3 7 4 Z 1024,1 9 0 0,0
19.02.2019 11:00:00 6,1 4,6 5,6 5,7 6,7 6 3 9 5 W 1023,7 7 0 0,0
19.02.2019 10:00:00 5,6 4,1 4,9 5,7 6,7 3 2 10 5 ZW 1023,3 9 0 0,0
19.02.2019 09:00:00 5,2 3,8 4,6 5,8 6,7 4 2 9 5 Z 1022,6 9 0 0,2
19.02.2019 08:00:00 5,5 2,8 4,6 5,8 6,6 5 3 11 6 ZW 1021,9 7 0 0,2
19.02.2019 07:00:00 6,3 1,4 5,3 5,9 6,6 6 3 12 7 WZW 1021,0 23 0 0,0
19.02.2019 06:00:00 6,6 0,9 4,3 6,0 6,6 7 4 11 6 ZW 1020,4 40 0 0,0
19.02.2019 05:00:00 5,2 0,6 3,5 6,1 6,7 4 2 8 4 Z 1020,1 36 0 0,0
19.02.2019 04:00:00 5,3 0,5 2,4 6,1 6,6 4 2 11 6 Z 1019,6 41 0 0,0
19.02.2019 03:00:00 3,0 0,4 0,5 6,2 6,7 3 2 9 5 OZO 1019,7 15 0 0,0
19.02.2019 02:00:00 2,1 -1,0 0,7 6,3 6,6 7 4 9 5 O 1019,9 12 0 0,0
19.02.2019 01:00:00 4,3 0,1 1,7 6,3 6,6 0 0 5 3 N 1019,5 13 0 0,0
19.02.2019 00:00:00 5,9 -0,2 3,0 6,3 6,6 3 2 6 4 OZO 1019,1 23 0 0,0
18.02.2019 23:00:00 6,0 -0,5 3,3 6,4 6,6 4 2 7 4 O 1019,1 25 0 0,0
18.02.2019 22:00:00 7,3 0,3 3,9 6,3 6,6 5 3 7 4 O 1018,9 29 0 0,0
18.02.2019 21:00:00 7,6 -0,6 4,9 6,2 6,6 4 2 10 5 Z 1018,7 54 0 0,0
18.02.2019 20:00:00 6,9 -0,3 4,9 6,1 6,6 5 3 9 5 OZO 1018,4 38 0 0,0
18.02.2019 19:00:00 8,1 -0,7 6,0 5,9 6,6 4 2 6 3 ZO 1018,4 60 0 0,0
18.02.2019 18:00:00 12,5 0,6 8,6 5,7 6,6 2 1 11 6 WZW 1017,7 60 41 0,0
18.02.2019 17:00:00 15,1 1,2 16,0 5,5 6,6 2 1 9 5 NW 1017,6 60 58 0,0
18.02.2019 16:00:00 14,8 0,2 15,3 5,3 6,6 4 2 14 8 W 1017,9 49 50 0,0
18.02.2019 15:00:00 14,5 1,0 15,2 5,2 6,6 9 5 21 12 WZW 1018,1 47 45 0,0
18.02.2019 14:00:00 13,3 1,0 15,0 5,1 6,6 11 6 22 12 ZW 1019,0 50 47 0,0
18.02.2019 13:00:00 12,4 0,2 15,5 5,1 6,6 16 8 26 14 ZZW 1019,6 26 58 0,0
18.02.2019 12:00:00 11,9 0,0 15,1 5,1 6,6 15 8 29 16 ZZW 1020,1 38 60 0,0
18.02.2019 11:00:00 11,0 0,7 11,2 5,2 6,6 13 7 24 13 Z 1020,3 20 60 0,0
18.02.2019 10:00:00 9,2 1,4 6,3 5,3 6,6 13 7 20 11 ZZO 1020,7 34 45 0,0
18.02.2019 09:00:00 6,1 0,6 2,1 5,5 6,6 7 4 14 7 O 1021,0 33 13 0,0
18.02.2019 08:00:00 2,7 -0,9 -0,9 5,6 6,6 8 4 13 7 O 1021,0 23 0 0,0
18.02.2019 07:00:00 1,2 -2,2 -0,4 5,7 6,6 11 6 16 8 O 1021,0 25 0 0,0
18.02.2019 06:00:00 2,7 -0,8 -1,3 5,9 6,6 13 7 17 9 O 1021,2 23 0 0,0
18.02.2019 05:00:00 1,3 -2,3 -0,6 6,0 6,6 8 5 10 6 O 1021,4 23 0 0,0
18.02.2019 04:00:00 1,8 -1,5 -0,6 6,1 6,6 6 3 12 6 O 1021,4 22 0 0,0
18.02.2019 03:00:00 1,5 -1,7 -0,9 6,1 6,6 9 5 13 7 O 1021,7 20 0 0,0
18.02.2019 02:00:00 2,8 -0,8 -0,6 6,2 6,6 10 5 14 8 O 1021,7 16 0 0,0
18.02.2019 01:00:00 1,6 -1,1 0,1 6,3 6,6 12 6 14 8 O 1021,9 13 0 0,0
18.02.2019 00:00:00 2,3 -1,3 -0,4 6,3 6,6 10 5 13 7 O 1022,0 19 0 0,0
17.02.2019 23:00:00 2,7 -1,7 -0,1 6,3 6,6 2 1 5 3 ZO 1022,1 16 0 0,0
17.02.2019 22:00:00 6,8 -1,4 3,9 6,2 6,6 5 3 10 5 O 1021,8 22 0 0,0
17.02.2019 21:00:00 10,2 -0,1 6,2 6,1 6,6 8 4 9 5 O 1021,5 25 0 0,0
17.02.2019 20:00:00 9,4 -0,5 5,9 5,9 6,5 9 5 16 9 O 1021,4 24 0 0,0
17.02.2019 19:00:00 10,2 -1,8 7,1 5,8 6,6 8 4 13 7 ZO 1021,2 48 0 0,0
17.02.2019 18:00:00 13,7 -2,7 11,5 5,5 6,5 2 1 6 3 ONO 1020,6 60 33 0,0
17.02.2019 17:00:00 18,2 -1,6 18,7 5,3 6,5 4 2 9 5 NW 1020,5 60 60 0,0
17.02.2019 16:00:00 19,0 -3,2 20,6 5,0 6,5 5 3 18 10 WNW 1021,0 54 60 0,0
17.02.2019 15:00:00 18,2 -3,9 20,2 4,9 6,5 10 6 22 12 Z 1021,3 35 60 0,0
17.02.2019 14:00:00 17,5 -5,1 20,7 4,8 6,5 11 6 25 14 Z 1021,9 28 60 0,0
17.02.2019 13:00:00 16,6 -5,2 19,0 4,8 6,5 13 7 23 12 Z 1022,3 30 60 0,0
17.02.2019 12:00:00 15,5 -2,5 16,4 4,8 6,5 11 6 22 12 Z 1022,9 27 60 0,0
17.02.2019 11:00:00 13,4 -2,6 12,9 5,0 6,5 11 6 19 10 Z 1023,2 25 60 0,0
17.02.2019 10:00:00 9,7 -0,5 3,7 5,1 6,5 5 3 8 4 O 1023,5 29 40 0,0
17.02.2019 09:00:00 4,1 -0,9 0,7 5,2 6,5 5 3 10 6 O 1024,0 17 11 0,0
17.02.2019 08:00:00 1,7 -2,6 -1,4 5,3 6,5 9 5 13 7 O 1024,0 17 0 0,0
17.02.2019 07:00:00 1,6 -2,2 -0,7 5,4 6,5 9 5 11 6 O 1023,8 15 0 0,0
17.02.2019 06:00:00 0,7 -2,4 -1,2 5,5 6,5 8 5 11 6 O 1024,2 12 0 0,0
17.02.2019 05:00:00 1,1 -1,5 -1,5 5,6 6,5 9 5 12 7 O 1024,3 11 0 0,0
17.02.2019 04:00:00 1,4 -1,0 -0,9 5,8 6,5 10 5 13 7 O 1024,4 11 0 0,0
17.02.2019 03:00:00 2,8 -0,3 -1,6 5,9 6,5 10 6 13 7 O 1024,7 12 0 0,0
17.02.2019 02:00:00 1,9 -0,5 -0,4 5,9 6,5 8 5 14 8 O 1025,0 11 0 0,0
17.02.2019 01:00:00 1,5 -1,9 -0,1 6,0 6,5 11 6 13 7 O 1025,5 11 0 0,0
17.02.2019 00:00:00 1,8 -0,8 0,2 6,0 6,5 9 5 11 6 O 1025,8 9 0 0,0
16.02.2019 23:00:00 2,6 -0,2 0,5 6,1 6,5 10 5 14 7 O 1026,1 10 0 0,0
16.02.2019 22:00:00 2,3 0,5 0,5 6,0 6,5 9 5 10 6 O 1026,4 9 0 0,0
16.02.2019 21:00:00 4,0 0,9 1,2 5,9 6,5 5 3 10 6 O 1026,4 9 0 0,0
16.02.2019 20:00:00 4,8 0,6 2,0 5,8 6,5 5 3 9 5 O 1026,4 11 0 0,0
16.02.2019 19:00:00 6,9 1,0 3,9 5,6 6,5 5 3 8 4 O 1026,5 17 0 0,0
16.02.2019 18:00:00 11,0 1,8 9,0 5,3 6,5 0 0 3 2 N 1026,1 16 31 0,0
16.02.2019 17:00:00 16,5 0,6 17,1 5,1 6,5 0 0 11 6 N 1026,0 19 60 0,0
16.02.2019 16:00:00 16,0 2,4 17,7 4,9 6,5 7 4 14 8 W 1026,4 18 60 0,0
16.02.2019 15:00:00 16,1 2,8 18,3 4,7 6,5 9 5 16 8 W 1026,7 16 60 0,0
16.02.2019 14:00:00 15,7 2,1 18,9 4,6 6,5 7 4 12 7 W 1027,0 17 60 0,0
16.02.2019 13:00:00 15,1 1,9 18,5 4,6 6,5 5 3 11 6 W 1027,8 17 60 0,0
16.02.2019 12:00:00 13,1 1,1 16,2 4,7 6,5 4 2 9 5 WZW 1028,3 19 60 0,0
16.02.2019 11:00:00 10,5 1,6 7,9 4,8 6,5 4 2 9 5 O 1028,6 15 60 0,0
16.02.2019 10:00:00 6,4 0,5 3,1 4,9 6,5 7 4 10 5 O 1028,6 14 40 0,0
16.02.2019 09:00:00 2,5 -0,4 -1,1 4,9 6,5 6 3 11 6 O 1029,0 8 9 0,0
16.02.2019 08:00:00 -0,6 -2,2 -2,8 5,1 6,5 9 5 12 6 O 1028,7 9 0 0,0
16.02.2019 07:00:00 -1,3 -3,2 -3,0 5,2 6,5 6 3 10 5 OZO 1028,5 3,8 0 0,0
16.02.2019 06:00:00 -0,7 -2,1 -1,9 5,3 6,5 9 5 10 6 O 1028,4 9 0 0,0
16.02.2019 05:00:00 -0,2 -2,3 -1,8 5,4 6,5 7 4 11 6 O 1028,4 10 0 0,0
16.02.2019 04:00:00 0,2 -1,4 -1,7 5,5 6,5 11 6 13 7 O 1028,2 10 0 0,0
16.02.2019 03:00:00 0,2 -1,4 -1,8 5,6 6,4 13 7 14 8 O 1028,6 12 0 0,0
16.02.2019 02:00:00 1,3 -1,9 -0,7 5,6 6,5 3 1 11 6 O 1028,7 12 0 0,0
16.02.2019 01:00:00 5,6 -0,3 1,6 5,7 6,5 9 5 14 8 O 1028,0 17 0 0,0
16.02.2019 00:00:00 3,2 -0,8 0,7 5,7 6,5 14 7 15 8 O 1028,1 17 0 0,0
15.02.2019 23:00:00 2,9 -1,1 1,3 5,7 6,5 10 5 11 6 O 1028,2 18 0 0,0
15.02.2019 22:00:00 5,3 -0,1 2,0 5,7 6,4 10 5 12 6 O 1028,4 17 0 0,0
15.02.2019 21:00:00 5,8 -0,9 3,1 5,6 6,5 8 4 9 5 O 1028,5 19 0 0,0
15.02.2019 20:00:00 6,4 -1,3 4,4 5,4 6,5 9 5 10 6 O 1028,4 20 0 0,0
15.02.2019 19:00:00 11,2 -1,3 7,0 5,2 6,5 7 4 13 7 O 1028,1 34 0 0,0
15.02.2019 18:00:00 13,4 -1,8 10,6 4,9 6,5 8 5 14 7 ZO 1027,9 60 32 0,0
15.02.2019 17:00:00 17,8 -0,5 18,7 4,7 6,5 6 3 13 7 OZO 1027,8 58 60 0,0
15.02.2019 16:00:00 18,3 -1,0 20,0 4,5 6,4 8 4 15 8 Z 1028,2 55 60 0,0
15.02.2019 15:00:00 17,9 -0,4 19,9 4,3 6,5 8 4 18 10 Z 1028,8 33 60 0,0
15.02.2019 14:00:00 17,6 -0,7 19,0 4,3 6,5 10 5 24 13 ZZO 1029,4 24 60 0,0
15.02.2019 13:00:00 16,0 -0,7 17,4 4,2 6,4 15 8 25 13 ZZO 1030,3 51 60 0,0
15.02.2019 12:00:00 13,7 -0,7 14,4 4,3 6,5 9 5 24 13 ZO 1031,2 48 60 0,0
15.02.2019 11:00:00 10,3 0,6 6,3 4,4 6,4 11 6 18 10 O 1031,7 23 60 0,0
15.02.2019 10:00:00 6,1 -0,4 2,0 4,5 6,5 12 6 16 9 O 1032,2 19 40 0,0
15.02.2019 09:00:00 2,2 -1,1 -1,3 4,5 6,5 10 5 16 9 O 1032,7 15 9 0,0
15.02.2019 08:00:00 -0,3 -2,2 -2,8 4,6 6,4 7 4 11 6 O 1032,7 9 0 0,0
15.02.2019 07:00:00 -0,7 -2,1 -2,7 4,7 6,5 11 6 12 7 O 1032,5 11 0 0,0
15.02.2019 06:00:00 -0,6 -2,3 -2,5 4,8 6,5 5 3 10 5 O 1032,6 10 0 0,0
15.02.2019 05:00:00 1,2 -2,4 -1,2 4,9 6,4 8 4 15 8 O 1032,2 15 0 0,0
15.02.2019 04:00:00 3,0 -1,4 -0,1 5,0 6,5 8 5 14 7 O 1032,2 16 0 0,0
15.02.2019 03:00:00 1,0 -2,4 -0,9 5,1 6,5 12 7 18 10 O 1032,4 17 0 0,0
15.02.2019 02:00:00 1,3 -1,3 -1,5 5,2 6,5 3 2 13 7 OZO 1032,8 13 0 0,0
15.02.2019 01:00:00 2,3 -0,8 0,1 5,2 6,5 9 5 15 8 O 1032,9 13 0 0,0
15.02.2019 00:00:00 2,8 -1,0 0,7 5,2 6,5 13 7 19 10 O 1033,0 13 0 0,0
14.02.2019 23:00:00 4,1 -0,7 1,8 5,2 6,4 14 8 19 10 O 1033,2 21 0 0,0
14.02.2019 22:00:00 6,2 -0,3 1,7 5,2 6,5 13 7 18 10 O 1033,2 20 0 0,0
14.02.2019 21:00:00 5,2 -1,3 2,5 5,1 6,5 12 6 14 8 O 1033,2 23 0 0,0
14.02.2019 20:00:00 5,2 -0,6 3,1 5,0 6,5 13 7 15 8 O 1033,2 23 0 0,0
14.02.2019 19:00:00 7,8 0,0 5,1 4,8 6,5 10 6 11 6 O 1032,9 25 0 0,0
14.02.2019 18:00:00 10,4 1,5 7,5 4,5 6,5 9 5 19 10 OZO 1032,5 37 17 0,0
14.02.2019 17:00:00 13,8 2,4 14,7 4,3 6,5 10 6 15 8 O 1032,5 35 60 0,0
14.02.2019 16:00:00 16,0 1,3 17,2 4,0 6,5 6 3 18 10 O 1032,7 28 60 0,0
14.02.2019 15:00:00 15,7 0,7 17,4 3,9 6,5 9 5 18 10 ZZO 1033,4 34 60 0,0
14.02.2019 14:00:00 14,3 1,5 17,8 3,8 6,5 8 4 14 8 OZO 1034,1 19 60 0,0

tt = temperatuur
td = dauwpunt
tt 5cm = temperatuur 5cm
tt -20cm = temperatuur -20cm
tt -100cm = temperatuur -100cm
ff = windsnelheid
fx = windstoten
dd = windrichting
ppp = luchtdruk
vv = zicht
sd = Zonneschijnduur
rr = neerslag

Weerstations in de omgeving